Time,TemperatureF,DewpointF,PressureIn,WindDirection,WindDirectionDegrees,WindSpeedMPH,WindSpeedGustMPH,Humidity,HourlyPrecipIn,Conditions,Clouds,dailyrainin,SoftwareType,DateUTC
2013-01-11 00:02:00,39.0,33.0,30.19,NE,54,0.0,1.0,79,-99.99,,,-99.99,,2013-01-11 08:02:00,
2013-01-11 00:11:00,38.0,32.0,30.19,NE,54,0.0,1.0,80,-99.99,,,-99.99,,2013-01-11 08:11:00,
2013-01-11 00:22:00,38.0,32.0,30.19,NE,54,0.0,1.0,80,-99.99,,,-99.99,,2013-01-11 08:22:00,
2013-01-11 00:32:00,38.0,33.0,30.19,NE,54,0.0,2.0,81,-99.99,,,-99.99,,2013-01-11 08:32:00,
2013-01-11 00:42:00,38.0,33.0,30.19,NE,54,0.0,2.0,81,-99.99,,,-99.99,,2013-01-11 08:42:00,
2013-01-11 00:52:00,37.0,32.0,30.19,NE,54,0.0,1.0,82,-99.99,,,-99.99,,2013-01-11 08:52:00,
2013-01-11 01:02:00,37.0,32.0,30.19,NE,54,1.0,2.0,83,-99.99,,,-99.99,,2013-01-11 09:02:00,
2013-01-11 01:11:00,37.0,32.0,30.19,NE,54,1.0,2.0,83,-99.99,,,-99.99,,2013-01-11 09:11:00,
2013-01-11 01:22:00,37.0,33.0,30.19,NE,54,0.0,2.0,84,-99.99,,,-99.99,,2013-01-11 09:22:00,
2013-01-11 01:32:00,37.0,33.0,30.19,NE,54,0.0,1.0,85,-99.99,,,-99.99,,2013-01-11 09:32:00,
2013-01-11 01:42:00,37.0,33.0,30.19,NE,54,0.0,1.0,85,-99.99,,,-99.99,,2013-01-11 09:42:00,
2013-01-11 01:52:00,37.0,33.0,30.19,NE,54,0.0,1.0,85,-99.99,,,-99.99,,2013-01-11 09:52:00,
2013-01-11 02:02:00,37.0,33.0,30.19,NE,54,0.0,1.0,85,-99.99,,,-99.99,,2013-01-11 10:02:00,
2013-01-11 02:11:00,37.0,33.0,30.19,NE,54,0.0,1.0,85,-99.99,,,-99.99,,2013-01-11 10:11:00,
2013-01-11 02:22:00,37.0,33.0,30.20,NE,54,1.0,2.0,85,-99.99,,,-99.99,,2013-01-11 10:22:00,
2013-01-11 02:32:00,38.0,34.0,30.19,NE,54,0.0,1.0,84,-99.99,,,-99.99,,2013-01-11 10:32:00,
2013-01-11 02:42:00,38.0,34.0,30.19,NE,54,0.0,1.0,84,-99.99,,,-99.99,,2013-01-11 10:42:00,
2013-01-11 02:52:00,38.0,33.0,30.19,NE,54,0.0,1.0,83,-99.99,,,-99.99,,2013-01-11 10:52:00,
2013-01-11 03:02:00,38.0,33.0,30.19,NE,54,0.0,2.0,82,-99.99,,,-99.99,,2013-01-11 11:02:00,
2013-01-11 03:11:00,38.0,33.0,30.19,NE,54,0.0,2.0,82,-99.99,,,-99.99,,2013-01-11 11:11:00,
2013-01-11 03:22:00,38.0,33.0,30.19,NE,54,1.0,1.0,82,-99.99,,,-99.99,,2013-01-11 11:22:00,
2013-01-11 03:32:00,38.0,33.0,30.19,NE,54,0.0,3.0,81,-99.99,,,-99.99,,2013-01-11 11:32:00,
2013-01-11 03:42:00,38.0,33.0,30.19,NE,54,0.0,3.0,81,-99.99,,,-99.99,,2013-01-11 11:42:00,
2013-01-11 03:52:00,38.0,33.0,30.19,NE,54,1.0,3.0,81,-99.99,,,-99.99,,2013-01-11 11:52:00,
2013-01-11 04:02:00,38.0,32.0,30.19,NE,54,0.0,2.0,80,-99.99,,,-99.99,,2013-01-11 12:02:00,
2013-01-11 04:12:00,38.0,32.0,30.19,NE,54,0.0,2.0,80,-99.99,,,-99.99,,2013-01-11 12:12:00,
2013-01-11 04:22:00,38.0,32.0,30.19,NE,54,0.0,1.0,79,-99.99,,,-99.99,,2013-01-11 12:22:00,
2013-01-11 04:32:00,38.0,32.0,30.19,NE,54,0.0,0.0,78,-99.99,,,-99.99,,2013-01-11 12:32:00,
2013-01-11 04:42:00,38.0,32.0,30.19,NE,54,0.0,0.0,78,-99.99,,,-99.99,,2013-01-11 12:42:00,
2013-01-11 04:52:00,38.0,32.0,30.19,NE,54,0.0,0.0,78,-99.99,,,-99.99,,2013-01-11 12:52:00,
2013-01-11 05:02:00,38.0,32.0,30.19,NE,54,0.0,1.0,79,-99.99,,,-99.99,,2013-01-11 13:02:00,
2013-01-11 05:12:00,38.0,32.0,30.19,NE,54,0.0,1.0,79,-99.99,,,-99.99,,2013-01-11 13:12:00,
2013-01-11 05:22:00,38.0,32.0,30.19,NE,54,1.0,1.0,79,-99.99,,,-99.99,,2013-01-11 13:22:00,
2013-01-11 05:32:00,38.0,32.0,30.20,NE,37,0.0,1.0,79,-99.99,,,-99.99,,2013-01-11 13:32:00,
2013-01-11 05:42:00,38.0,32.0,30.20,NE,37,0.0,1.0,79,-99.99,,,-99.99,,2013-01-11 13:42:00,
2013-01-11 05:52:00,38.0,32.0,30.21,NE,37,0.0,2.0,80,-99.99,,,-99.99,,2013-01-11 13:52:00,
2013-01-11 06:02:00,38.0,32.0,30.21,North,359,1.0,5.0,79,-99.99,,,-99.99,,2013-01-11 14:02:00,
2013-01-11 06:11:00,38.0,32.0,30.21,North,359,1.0,5.0,79,-99.99,,,-99.99,,2013-01-11 14:11:00,
2013-01-11 06:22:00,38.0,32.0,30.21,North,0,0.0,2.0,79,-99.99,,,-99.99,,2013-01-11 14:22:00,
2013-01-11 06:33:00,38.0,32.0,30.22,North,357,0.0,2.0,79,-99.99,,,-99.99,,2013-01-11 14:33:00,
2013-01-11 06:42:00,38.0,32.0,30.22,North,357,0.0,0.0,78,-99.99,,,-99.99,,2013-01-11 14:42:00,
2013-01-11 07:02:00,37.0,31.0,30.23,WSW,256,1.0,2.0,78,-99.99,,,-99.99,,2013-01-11 15:02:00,
2013-01-11 07:12:00,37.0,31.0,30.24,WSW,256,0.0,2.0,79,-99.99,,,-99.99,,2013-01-11 15:12:00,
2013-01-11 07:22:00,37.0,31.0,30.24,WSW,256,0.0,2.0,79,-99.99,,,-99.99,,2013-01-11 15:22:00,
2013-01-11 07:32:00,36.0,31.0,30.24,WNW,289,0.0,1.0,81,-99.99,,,-99.99,,2013-01-11 15:32:00,
2013-01-11 07:42:00,36.0,31.0,30.24,WNW,289,0.0,1.0,81,-99.99,,,-99.99,,2013-01-11 15:42:00,
2013-01-11 07:53:00,36.0,31.0,30.24,NNW,343,0.0,2.0,81,-99.99,,,-99.99,,2013-01-11 15:53:00,
2013-01-11 08:02:00,36.0,31.0,30.24,NNW,343,0.0,0.0,82,-99.99,,,-99.99,,2013-01-11 16:02:00,
2013-01-11 08:12:00,36.0,31.0,30.24,NNW,344,0.0,2.0,82,-99.99,,,-99.99,,2013-01-11 16:12:00,
2013-01-11 08:22:00,36.0,31.0,30.24,NNW,344,0.0,2.0,82,-99.99,,,-99.99,,2013-01-11 16:22:00,
2013-01-11 08:32:00,38.0,33.0,30.24,NNW,344,0.0,1.0,81,-99.99,,,-99.99,,2013-01-11 16:32:00,
2013-01-11 08:52:00,39.0,33.0,30.24,NNE,21,0.0,1.0,80,-99.99,,,-99.99,,2013-01-11 16:52:00,
2013-01-11 09:03:00,39.0,33.0,30.25,NNE,21,0.0,1.0,80,-99.99,,,-99.99,,2013-01-11 17:03:00,
2013-01-11 09:12:00,39.0,34.0,30.25,NNE,21,0.0,1.0,83,-99.99,,,-99.99,,2013-01-11 17:12:00,
2013-01-11 09:22:00,39.0,34.0,30.25,NNE,21,0.0,1.0,83,-99.99,,,-99.99,,2013-01-11 17:22:00,
2013-01-11 09:33:00,41.0,35.0,30.26,NNE,23,0.0,2.0,80,-99.99,,,-99.99,,2013-01-11 17:33:00,
2013-01-11 09:42:00,41.0,35.0,30.26,NNE,23,0.0,2.0,80,-99.99,,,-99.99,,2013-01-11 17:42:00,
2013-01-11 09:52:00,42.0,36.0,30.26,NNE,24,0.0,2.0,79,-99.99,,,-99.99,,2013-01-11 17:52:00,
2013-01-11 10:02:00,42.0,35.0,30.27,East,100,2.0,3.0,76,-99.99,,,-99.99,,2013-01-11 18:02:00,
2013-01-11 10:12:00,42.0,35.0,30.27,East,100,2.0,3.0,76,-99.99,,,-99.99,,2013-01-11 18:12:00,
2013-01-11 10:22:00,43.0,34.0,30.26,SE,128,2.0,5.0,71,-99.99,,,-99.99,,2013-01-11 18:22:00,
2013-01-11 10:32:00,44.0,34.0,30.25,NE,55,2.0,5.0,68,-99.99,,,-99.99,,2013-01-11 18:32:00,
2013-01-11 10:42:00,44.0,34.0,30.25,NE,55,2.0,5.0,68,-99.99,,,-99.99,,2013-01-11 18:42:00,
2013-01-11 10:53:00,45.0,35.0,30.25,ESE,104,3.0,142.0,67,-99.99,,,-99.99,,2013-01-11 18:53:00,
2013-01-11 11:02:00,45.0,35.0,30.25,East,86,2.0,3.0,67,-99.99,,,-99.99,,2013-01-11 19:02:00,
2013-01-11 11:12:00,45.0,35.0,30.25,East,86,2.0,3.0,67,-99.99,,,-99.99,,2013-01-11 19:12:00,
2013-01-11 11:22:00,46.0,35.0,30.25,SE,133,0.0,6.0,64,-99.99,,,-99.99,,2013-01-11 19:22:00,
2013-01-11 11:32:00,46.0,33.0,30.24,SSE,168,2.0,5.0,61,-99.99,,,-99.99,,2013-01-11 19:32:00,
2013-01-11 11:42:00,46.0,33.0,30.24,SSE,168,2.0,5.0,61,-99.99,,,-99.99,,2013-01-11 19:42:00,
2013-01-11 11:52:00,46.0,33.0,30.24,West,267,2.0,3.0,60,-99.99,,,-99.99,,2013-01-11 19:52:00,
2013-01-11 12:02:00,47.0,34.0,30.23,SSE,158,2.0,3.0,60,-99.99,,,-99.99,,2013-01-11 20:02:00,
2013-01-11 12:11:00,47.0,34.0,30.23,SSE,158,2.0,3.0,60,-99.99,,,-99.99,,2013-01-11 20:11:00,
2013-01-11 12:22:00,48.0,34.0,30.22,SW,220,1.0,5.0,59,-99.99,,,-99.99,,2013-01-11 20:22:00,
2013-01-11 12:32:00,48.0,33.0,30.21,SSW,206,0.0,7.0,55,-99.99,,,-99.99,,2013-01-11 20:32:00,
2013-01-11 12:42:00,48.0,33.0,30.21,SSW,206,0.0,7.0,55,-99.99,,,-99.99,,2013-01-11 20:42:00,
2013-01-11 12:52:00,48.0,34.0,30.19,SSW,206,4.0,7.0,57,-99.99,,,-99.99,,2013-01-11 20:52:00,
2013-01-11 13:02:00,48.0,32.0,30.19,East,97,3.0,6.0,54,-99.99,,,-99.99,,2013-01-11 21:02:00,
2013-01-11 13:12:00,50.0,35.0,30.19,SW,229,7.0,10.0,56,-99.99,,,-99.99,,2013-01-11 21:12:00,
2013-01-11 13:22:00,50.0,35.0,30.19,SW,229,7.0,10.0,56,-99.99,,,-99.99,,2013-01-11 21:22:00,
2013-01-11 13:32:00,49.0,33.0,30.18,SSE,160,2.0,7.0,54,-99.99,,,-99.99,,2013-01-11 21:32:00,
2013-01-11 13:42:00,49.0,33.0,30.18,SSE,160,2.0,7.0,54,-99.99,,,-99.99,,2013-01-11 21:42:00,
2013-01-11 13:53:00,49.0,32.0,30.17,ESE,114,2.0,7.0,52,-99.99,,,-99.99,,2013-01-11 21:53:00,
2013-01-11 14:02:00,50.0,33.0,30.17,South,178,1.0,7.0,52,-99.99,,,-99.99,,2013-01-11 22:02:00,
2013-01-11 14:12:00,50.0,34.0,30.17,SSW,209,1.0,8.0,53,-99.99,,,-99.99,,2013-01-11 22:12:00,
2013-01-11 14:22:00,50.0,34.0,30.17,SSW,209,1.0,8.0,53,-99.99,,,-99.99,,2013-01-11 22:22:00,
2013-01-11 14:33:00,51.0,36.0,30.16,SW,234,6.0,11.0,56,-99.99,,,-99.99,,2013-01-11 22:33:00,
2013-01-11 14:42:00,51.0,36.0,30.16,SW,234,6.0,11.0,56,-99.99,,,-99.99,,2013-01-11 22:42:00,
2013-01-11 14:52:00,51.0,36.0,30.16,SSW,199,6.0,12.0,57,-99.99,,,-99.99,,2013-01-11 22:52:00,
2013-01-11 15:02:00,50.0,38.0,30.16,SW,233,9.0,10.0,63,-99.99,,,-99.99,,2013-01-11 23:02:00,
2013-01-11 15:12:00,50.0,38.0,30.16,SW,233,9.0,10.0,63,-99.99,,,-99.99,,2013-01-11 23:12:00,
2013-01-11 15:22:00,50.0,38.0,30.16,SSW,209,7.0,10.0,64,-99.99,,,-99.99,,2013-01-11 23:22:00,
2013-01-11 15:32:00,50.0,39.0,30.15,SW,222,1.0,7.0,66,-99.99,,,-99.99,,2013-01-11 23:32:00,
2013-01-11 15:42:00,50.0,39.0,30.15,SW,222,1.0,7.0,66,-99.99,,,-99.99,,2013-01-11 23:42:00,
2013-01-11 15:53:00,50.0,39.0,30.15,SW,232,4.0,7.0,67,-99.99,,,-99.99,,2013-01-11 23:53:00,
2013-01-11 16:02:00,50.0,39.0,30.15,WSW,240,3.0,8.0,66,-99.99,,,-99.99,,2013-01-12 00:02:00,
2013-01-11 16:12:00,51.0,40.0,30.14,SW,229,5.0,8.0,65,-99.99,,,-99.99,,2013-01-12 00:12:00,
2013-01-11 16:22:00,51.0,40.0,30.14,SW,229,5.0,8.0,65,-99.99,,,-99.99,,2013-01-12 00:22:00,
2013-01-11 16:32:00,51.0,40.0,30.14,SW,232,8.0,8.0,66,-99.99,,,-99.99,,2013-01-12 00:32:00,
2013-01-11 16:42:00,51.0,40.0,30.14,SW,232,8.0,8.0,66,-99.99,,,-99.99,,2013-01-12 00:42:00,
2013-01-11 16:52:00,51.0,40.0,30.14,WSW,237,6.0,10.0,66,-99.99,,,-99.99,,2013-01-12 00:52:00,
2013-01-11 17:02:00,50.0,41.0,30.13,SW,227,6.0,10.0,70,-99.99,,,-99.99,,2013-01-12 01:02:00,
2013-01-11 17:12:00,50.0,41.0,30.13,SW,227,6.0,10.0,70,-99.99,,,-99.99,,2013-01-12 01:12:00,
2013-01-11 17:22:00,49.0,40.0,30.13,WSW,239,4.0,7.0,70,-99.99,,,-99.99,,2013-01-12 01:22:00,
2013-01-11 17:32:00,48.0,40.0,30.13,West,260,2.0,7.0,75,-99.99,,,-99.99,,2013-01-12 01:32:00,
2013-01-11 17:42:00,48.0,40.0,30.13,West,260,2.0,7.0,75,-99.99,,,-99.99,,2013-01-12 01:42:00,
2013-01-11 17:52:00,48.0,41.0,30.13,WSW,244,1.0,3.0,76,-99.99,,,-99.99,,2013-01-12 01:52:00,
2013-01-11 18:02:00,47.0,39.0,30.13,SW,233,1.0,2.0,74,-99.99,,,-99.99,,2013-01-12 02:02:00,
2013-01-11 18:11:00,47.0,39.0,30.13,SW,233,1.0,2.0,74,-99.99,,,-99.99,,2013-01-12 02:11:00,
2013-01-11 18:22:00,47.0,39.0,30.13,SW,232,0.0,2.0,74,-99.99,,,-99.99,,2013-01-12 02:22:00,
2013-01-11 18:30:00,47.0,39.0,30.14,WSW,243,1.0,5.0,73,-99.99,,,-99.99,,2013-01-12 02:30:00,
2013-01-11 18:32:00,47.0,39.0,30.13,WSW,241,1.0,3.0,74,-99.99,,,-99.99,,2013-01-12 02:32:00,
2013-01-11 18:42:00,47.0,39.0,30.13,WSW,241,1.0,3.0,74,-99.99,,,-99.99,,2013-01-12 02:42:00,
2013-01-11 18:52:00,47.0,39.0,30.14,WSW,243,1.0,5.0,73,-99.99,,,-99.99,,2013-01-12 02:52:00,
2013-01-11 19:02:00,47.0,39.0,30.14,WSW,243,1.0,5.0,73,-99.99,,,-99.99,,2013-01-12 03:02:00,
2013-01-11 19:11:00,47.0,39.0,30.14,WSW,243,1.0,5.0,73,-99.99,,,-99.99,,2013-01-12 03:11:00,
2013-01-11 19:22:00,47.0,39.0,30.14,WSW,243,1.0,5.0,73,-99.99,,,-99.99,,2013-01-12 03:22:00,
2013-01-11 20:02:00,46.0,37.0,30.76,South,179,0.0,0.0,72,-99.99,,,-99.99,,2013-01-12 04:02:00,
2013-01-11 20:12:00,46.0,37.0,30.76,South,179,0.0,0.0,72,-99.99,,,-99.99,,2013-01-12 04:12:00,
2013-01-11 20:22:00,46.0,37.0,30.76,South,179,0.0,0.0,72,-99.99,,,-99.99,,2013-01-12 04:22:00,
2013-01-11 20:32:00,46.0,37.0,30.62,South,179,0.0,0.0,72,-99.99,,,-99.99,,2013-01-12 04:32:00,
2013-01-11 20:42:00,46.0,37.0,30.62,South,179,0.0,0.0,72,-99.99,,,-99.99,,2013-01-12 04:42:00,
2013-01-11 20:52:00,46.0,37.0,30.62,South,179,0.0,0.0,72,-99.99,,,-99.99,,2013-01-12 04:52:00,
2013-01-11 21:02:00,45.0,37.0,30.62,South,179,1.0,1.0,72,-99.99,,,-99.99,,2013-01-12 05:02:00,
2013-01-11 21:12:00,45.0,37.0,30.62,South,179,1.0,1.0,72,-99.99,,,-99.99,,2013-01-12 05:12:00,
2013-01-11 21:22:00,45.0,38.0,30.62,South,179,0.0,1.0,76,-99.99,,,-99.99,,2013-01-12 05:22:00,
2013-01-11 21:32:00,44.0,37.0,30.62,South,179,0.0,2.0,76,-99.99,,,-99.99,,2013-01-12 05:32:00,
2013-01-11 21:42:00,44.0,37.0,30.62,South,179,0.0,2.0,76,-99.99,,,-99.99,,2013-01-12 05:42:00,
2013-01-11 21:52:00,44.0,37.0,30.59,South,179,0.0,1.0,76,-99.99,,,-99.99,,2013-01-12 05:52:00,
2013-01-11 22:02:00,43.0,36.0,30.58,South,179,0.0,0.0,76,-99.99,,,-99.99,,2013-01-12 06:02:00,
2013-01-11 22:12:00,43.0,36.0,30.58,South,179,0.0,0.0,76,-99.99,,,-99.99,,2013-01-12 06:12:00,
2013-01-11 22:22:00,43.0,36.0,30.58,ENE,62,0.0,1.0,76,-99.99,,,-99.99,,2013-01-12 06:22:00,
2013-01-11 22:32:00,43.0,36.0,30.57,North,1,1.0,1.0,76,-99.99,,,-99.99,,2013-01-12 06:32:00,
2013-01-11 22:42:00,43.0,36.0,30.57,North,1,1.0,1.0,76,-99.99,,,-99.99,,2013-01-12 06:42:00,
2013-01-11 22:52:00,43.0,36.0,30.56,North,0,1.0,2.0,76,-99.99,,,-99.99,,2013-01-12 06:52:00,
2013-01-11 23:02:00,42.0,37.0,30.56,North,357,0.0,2.0,82,-99.99,,,-99.99,,2013-01-12 07:02:00,
2013-01-11 23:11:00,42.0,37.0,30.56,North,357,0.0,0.0,82,-99.99,,,-99.99,,2013-01-12 07:11:00,
2013-01-11 23:21:00,42.0,37.0,30.56,North,357,0.0,0.0,82,-99.99,,,-99.99,,2013-01-12 07:21:00,
2013-01-11 23:32:00,42.0,37.0,30.57,WSW,239,0.0,3.0,83,-99.99,,,-99.99,,2013-01-12 07:32:00,
2013-01-11 23:42:00,42.0,37.0,30.57,WSW,239,0.0,3.0,83,-99.99,,,-99.99,,2013-01-12 07:42:00,
2013-01-11 23:52:00,42.0,37.0,30.56,WSW,239,0.0,1.0,83,-99.99,,,-99.99,,2013-01-12 07:52:00,